• In Netherlands
  • List of Countries
  • For 7 days
  • Water Temperature
  • Satellite Maps
  • Weather Map
  • Weather Widgets
  • user-avatar
    Login

    Hourly Weather Fier

    Today, 29 April, Saturday

    Time Temperature Precipitation Wind Pressure Humidity
    00:00 +17°C° 0.1 mm 4 mps 758 mmHg 52%
    01:00 +17°C° 0.1 mm 4 mps 758 mmHg 51%
    02:00 +17°C° 0.1 mm 4 mps 758 mmHg 49%
    03:00 +17°C° 0.1 mm 4 mps 758 mmHg 47%
    04:00 +17°C° 0.1 mm 4 mps 757 mmHg 45%
    05:00 +19°C° 0 mm 4 mps 757 mmHg 43%
    06:00 +20°C° 0 mm 4 mps 757 mmHg 41%
    07:00 +21°C° 0 mm 4 mps 757 mmHg 39%
    08:00 +22°C° 0 mm 4 mps 757 mmHg 35%
    09:00 +25°C° 0 mm 4 mps 757 mmHg 31%
    10:00 +26°C° 0 mm 4 mps 756 mmHg 28%
    11:00 +26°C° 0 mm 4 mps 756 mmHg 29%
    12:00 +26°C° 0 mm 3 mps 756 mmHg 31%
    13:00 +26°C° 0 mm 3 mps 756 mmHg 33%
    14:00 +25°C° 0 mm 3 mps 756 mmHg 39%
    15:00 +24°C° 0 mm 3 mps 756 mmHg 44%
    16:00 +24°C° 0 mm 3 mps 756 mmHg 50%
    17:00 +21°C° 0 mm 3 mps 756 mmHg 58%
    18:00 +19°C° 0 mm 3 mps 756 mmHg 65%
    19:00 +17°C° 0 mm 3 mps 756 mmHg 73%
    20:00 +17°C° 0 mm 3 mps 756 mmHg 74%
    21:00 +16°C° 0 mm 3 mps 756 mmHg 75%
    22:00 +16°C° 0 mm 3 mps 756 mmHg 76%
    23:00 +14°C° 0 mm 4 mps 756 mmHg 78%

    Tomorrow, 30 April, Sunday

    Time Temperature Precipitation Wind Pressure Humidity
    00:00 +14°C° 0 mm 4 mps 756 mmHg 80%
    01:00 +13°C° 0 mm 4 mps 756 mmHg 83%
    02:00 +13°C° 0 mm 4 mps 756 mmHg 84%
    03:00 +13°C° 0 mm 4 mps 756 mmHg 86%
    04:00 +12°C° 0 mm 4 mps 756 mmHg 88%
    05:00 +14°C° 0 mm 4 mps 756 mmHg 80%
    06:00 +17°C° 0 mm 4 mps 756 mmHg 73%
    07:00 +19°C° 0 mm 4 mps 757 mmHg 66%
    08:00 +20°C° 0 mm 4 mps 757 mmHg 60%
    09:00 +22°C° 0 mm 5 mps 757 mmHg 54%
    10:00 +25°C° 0 mm 5 mps 757 mmHg 49%
    11:00 +25°C° 0.1 mm 5 mps 756 mmHg 49%
    12:00 +24°C° 0.1 mm 6 mps 756 mmHg 50%
    13:00 +24°C° 0.1 mm 6 mps 756 mmHg 51%
    14:00 +23°C° 0.3 mm 6 mps 756 mmHg 55%
    15:00 +22°C° 0.3 mm 6 mps 756 mmHg 58%
    16:00 +22°C° 0.3 mm 5 mps 756 mmHg 62%
    17:00 +20°C° 0.4 mm 5 mps 756 mmHg 70%
    18:00 +18°C° 0.4 mm 4 mps 756 mmHg 78%
    19:00 +15°C° 0.4 mm 4 mps 756 mmHg 87%
    20:00 +16°C° 0 mm 3 mps 757 mmHg 87%
    21:00 +16°C° 0 mm 3 mps 757 mmHg 87%
    22:00 +16°C° 0 mm 2 mps 757 mmHg 87%
    23:00 +15°C° 0 mm 2 mps 757 mmHg 87%

    Day after tomorrow, 1 May, Monday

    Time Temperature Precipitation Wind Pressure Humidity
    00:00 +14°C° 0 mm 3 mps 757 mmHg 87%
    01:00 +14°C° 0 mm 3 mps 757 mmHg 87%
    02:00 +14°C° 0 mm 3 mps 757 mmHg 88%
    03:00 +13°C° 0 mm 3 mps 757 mmHg 89%
    04:00 +14°C° 0 mm 2 mps 757 mmHg 90%
    05:00 +15°C° 0 mm 2 mps 758 mmHg 84%
    06:00 +17°C° 0 mm 2 mps 758 mmHg 78%
    07:00 +18°C° 0 mm 2 mps 758 mmHg 72%
    08:00 +20°C° 0 mm 2 mps 758 mmHg 65%
    09:00 +22°C° 0 mm 3 mps 758 mmHg 58%
    10:00 +24°C° 0 mm 3 mps 758 mmHg 51%
    11:00 +25°C° 0.2 mm 3 mps 758 mmHg 52%
    12:00 +25°C° 0.2 mm 4 mps 758 mmHg 54%
    13:00 +25°C° 0.2 mm 4 mps 758 mmHg 55%
    14:00 +23°C° 0.2 mm 4 mps 758 mmHg 59%
    15:00 +23°C° 0.2 mm 4 mps 758 mmHg 62%
    16:00 +22°C° 0.2 mm 3 mps 758 mmHg 65%
    17:00 +20°C° 0.1 mm 3 mps 758 mmHg 73%
    18:00 +18°C° 0.1 mm 2 mps 758 mmHg 82%
    19:00 +16°C° 0.1 mm 2 mps 758 mmHg 90%
    20:00 +16°C° 0 mm 1 mps 758 mmHg 90%
    21:00 +15°C° 0 mm 1 mps 759 mmHg 91%
    22:00 +15°C° 0 mm 1 mps 759 mmHg 91%
    23:00 +15°C° 0 mm 1 mps 759 mmHg 91%

    2 May, Tuesday

    Time Temperature Precipitation Wind Pressure Humidity
    00:00 +14°C° 0 mm 1 mps 759 mmHg 91%
    01:00 +14°C° 0 mm 1 mps 759 mmHg 91%
    02:00 +14°C° 0 mm 1 mps 759 mmHg 91%
    03:00 +13°C° 0 mm 1 mps 759 mmHg 91%
    04:00 +13°C° 0 mm 1 mps 758 mmHg 92%
    05:00 +15°C° 0 mm 1 mps 759 mmHg 86%
    06:00 +16°C° 0 mm 0 mps 759 mmHg 79%
    07:00 +19°C° 0 mm 0 mps 759 mmHg 73%
    08:00 +22°C° 0 mm 1 mps 759 mmHg 66%
    09:00 +24°C° 0 mm 1 mps 759 mmHg 58%
    10:00 +25°C° 0 mm 2 mps 759 mmHg 51%
    11:00 +26°C° 0 mm 2 mps 759 mmHg 49%
    12:00 +26°C° 0 mm 3 mps 759 mmHg 47%
    13:00 +26°C° 0 mm 4 mps 759 mmHg 45%
    14:00 +25°C° 0 mm 4 mps 759 mmHg 45%
    15:00 +25°C° 0 mm 4 mps 759 mmHg 46%
    16:00 +23°C° 0 mm 4 mps 759 mmHg 47%
    17:00 +21°C° 0 mm 3 mps 759 mmHg 55%
    18:00 +19°C° 0 mm 3 mps 759 mmHg 62%
    19:00 +16°C° 0 mm 2 mps 760 mmHg 70%
    20:00 +16°C° 0 mm 2 mps 760 mmHg 72%
    21:00 +15°C° 0 mm 2 mps 760 mmHg 73%
    22:00 +14°C° 0 mm 2 mps 760 mmHg 75%
    23:00 +14°C° 0 mm 2 mps 760 mmHg 76%

    3 May, Wednesday

    Time Temperature Precipitation Wind Pressure Humidity
    00:00 +14°C° 0 mm 2 mps 760 mmHg 78%
    01:00 +14°C° 0 mm 2 mps 760 mmHg 79%
    02:00 +13°C° 0 mm 2 mps 760 mmHg 81%
    03:00 +13°C° 0 mm 2 mps 760 mmHg 83%
    04:00 +13°C° 0 mm 2 mps 760 mmHg 84%
    05:00 +15°C° 0 mm 2 mps 760 mmHg 75%
    06:00 +17°C° 0 mm 2 mps 760 mmHg 65%
    07:00 +20°C° 0 mm 2 mps 760 mmHg 56%
    08:00 +21°C° 0 mm 2 mps 760 mmHg 52%
    09:00 +24°C° 0 mm 2 mps 760 mmHg 49%
    10:00 +25°C° 0 mm 3 mps 760 mmHg 45%
    11:00 +26°C° 0 mm 3 mps 760 mmHg 45%
    12:00 +26°C° 0 mm 4 mps 760 mmHg 45%
    13:00 +26°C° 0 mm 5 mps 759 mmHg 45%
    14:00 +25°C° 0 mm 4 mps 759 mmHg 48%
    15:00 +25°C° 0 mm 4 mps 759 mmHg 51%
    16:00 +23°C° 0 mm 4 mps 759 mmHg 53%
    17:00 +21°C° 0 mm 3 mps 759 mmHg 62%
    18:00 +18°C° 0 mm 3 mps 759 mmHg 72%
    19:00 +16°C° 0 mm 2 mps 759 mmHg 81%
    20:00 +15°C° 0 mm 2 mps 760 mmHg 82%
    21:00 +15°C° 0 mm 1 mps 760 mmHg 84%
    22:00 +14°C° 0 mm 1 mps 760 mmHg 86%
    23:00 +14°C° 0 mm 1 mps 760 mmHg 86%

    4 May, Thursday

    Time Temperature Precipitation Wind Pressure Humidity
    00:00 +14°C° 0 mm 1 mps 760 mmHg 86%
    01:00 +13°C° 0 mm 1 mps 759 mmHg 86%
    02:00 +13°C° 0 mm 1 mps 759 mmHg 86%
    03:00 +13°C° 0 mm 1 mps 759 mmHg 85%
    04:00 +12°C° 0 mm 1 mps 759 mmHg 85%
    05:00 +15°C° 0 mm 1 mps 759 mmHg 76%
    06:00 +18°C° 0 mm 1 mps 759 mmHg 68%
    07:00 +21°C° 0 mm 1 mps 759 mmHg 59%
    08:00 +22°C° 0 mm 1 mps 759 mmHg 52%
    09:00 +24°C° 0 mm 1 mps 759 mmHg 46%
    10:00 +25°C° 0 mm 2 mps 759 mmHg 40%
    11:00 +26°C° 0 mm 2 mps 759 mmHg 39%
    12:00 +26°C° 0 mm 3 mps 759 mmHg 38%
    13:00 +27°C° 0 mm 3 mps 758 mmHg 37%
    14:00 +26°C° 0 mm 3 mps 758 mmHg 40%
    15:00 +25°C° 0 mm 3 mps 758 mmHg 42%
    16:00 +24°C° 0 mm 2 mps 758 mmHg 44%
    17:00 +21°C° 0 mm 2 mps 758 mmHg 54%
    18:00 +19°C° 0 mm 1 mps 759 mmHg 63%
    19:00 +16°C° 0 mm 1 mps 759 mmHg 73%
    20:00 +15°C° 0 mm 1 mps 759 mmHg 74%
    21:00 +15°C° 0 mm 1 mps 759 mmHg 76%
    22:00 +14°C° 0 mm 1 mps 759 mmHg 77%
    23:00 +14°C° 0 mm 1 mps 759 mmHg 77%
    Show more